Weather History for Salmon, ID

Change the Weather History Date:

Tuesday, May 12, 2009

  Actual Average Record
Temperature  
Mean Temperature 48 °F -  
Max Temperature 57 °F 62 °F 89 °F (1993)
Min Temperature 39 °F 35 °F 26 °F (2012)
Degree Days  
Heating Degree Days 17    
Moisture  
Dew Point 28 °F    
Average Humidity 51    
Maximum Humidity 76    
Minimum Humidity 18    
Precipitation  
Precipitation 0.00 in - - ()
Sea Level Pressure  
Sea Level Pressure 29.74 in    
Wind  
Wind Speed 6 mph (West)    
Max Wind Speed 24 mph    
Max Gust Speed 45 mph    
Visibility 10 miles    
Events      
Averages and records for this station are not official NWS values.
T = Trace of Precipitation, MM = Missing Value Source: NWS Daily Summary

Daily Weather History Graph

Daily Weather History Graph

Search for Another Location

Airport:

Trip Planner

Search our weather history database for the weather conditions in past years. The results will help you decide how hot, cold, wet, or windy it might be!

Date:

Astronomy

May. 12, 2009 Rise Set
Actual Time 6:09 AM MDT 8:55 PM MDT
Civil Twilight 5:35 AM MDT 9:29 PM MDT
Nautical Twilight 4:52 AM MDT 10:12 PM MDT
Astronomical Twilight 4:02 AM MDT 11:02 PM MDT
Moon No Moon Rise 8:17 AM MDT (5/12)
Length of Visible Light 15h 53m
Length of Day
14h 45m
Waning Gibbous, 88% of the Moon is Illuminated
May 12
Waning Gibbous
May 17
Last Quarter
May 24
New
May 30
First Quarter
Jun 7
Full

Hourly Weather History & Observations

Time (MDT) Temp. Windchill Dew Point Humidity Pressure Visibility Wind Dir Wind Speed Gust Speed Precip Events Conditions
12:15 AM 44.6 °F 42.2 °F 30.2 °F 57% 29.79 in 10.0 mi ESE 4.6 mph - N/A   Clear
12:35 AM 44.6 °F - 30.2 °F 57% 29.79 in 10.0 mi Calm Calm - N/A   Scattered Clouds
1:15 AM 42.8 °F - 30.2 °F 61% 29.79 in 10.0 mi Calm Calm - N/A   Scattered Clouds
1:35 AM 44.6 °F - 32.0 °F 61% 29.79 in 10.0 mi Calm Calm - N/A   Mostly Cloudy
1:55 AM 44.6 °F - 32.0 °F 61% 29.78 in 10.0 mi Calm Calm - N/A   Overcast
2:15 AM 46.4 °F 45.2 °F 32.0 °F 57% 29.78 in 10.0 mi SSE 3.5 mph - N/A   Overcast
2:35 AM 46.4 °F - 32.0 °F 57% 29.78 in 10.0 mi Calm Calm - N/A   Overcast
2:55 AM 44.6 °F - 33.8 °F 66% 29.75 in 10.0 mi Calm Calm - N/A   Overcast
3:15 AM 42.8 °F - 30.2 °F 61% 29.75 in 10.0 mi Calm Calm - N/A   Overcast
3:35 AM 42.8 °F - 32.0 °F 66% 29.77 in 10.0 mi Calm Calm - N/A   Overcast
3:55 AM 42.8 °F 41.1 °F 30.2 °F 61% 29.76 in 10.0 mi WNW 3.5 mph - N/A   Overcast
4:15 AM 42.8 °F - 32.0 °F 66% 29.75 in 10.0 mi Calm Calm - N/A   Overcast
4:35 AM 42.8 °F - 32.0 °F 66% 29.73 in 10.0 mi Calm Calm - N/A   Mostly Cloudy
4:55 AM 42.8 °F - 33.8 °F 70% 29.72 in 10.0 mi Calm Calm - N/A   Mostly Cloudy
5:15 AM 41.0 °F - 33.8 °F 76% 29.72 in 10.0 mi Calm Calm - N/A   Mostly Cloudy
5:35 AM 42.8 °F - 32.0 °F 66% 29.73 in 10.0 mi Calm Calm - N/A   Overcast
5:55 AM 42.8 °F 40.1 °F 32.0 °F 66% 29.76 in 10.0 mi NW 4.6 mph - N/A   Overcast
6:15 AM 42.8 °F 38.6 °F 33.8 °F 70% 29.75 in 9.0 mi NE 6.9 mph - N/A   Overcast
6:35 AM 44.6 °F 40.7 °F 35.6 °F 71% 29.74 in 10.0 mi NNE 6.9 mph - N/A   Scattered Clouds
6:55 AM 44.6 °F - 33.8 °F 66% 29.73 in 10.0 mi Calm Calm - N/A   Clear
7:35 AM 42.8 °F 41.1 °F 35.6 °F 76% 29.72 in 10.0 mi ENE 3.5 mph - N/A   Clear
7:55 AM 46.4 °F - 37.4 °F 71% 29.72 in 10.0 mi Calm Calm - N/A   Clear
8:15 AM 48.2 °F - 35.6 °F 62% 29.71 in 10.0 mi SW 3.5 mph - N/A   Mostly Cloudy
8:35 AM 50.0 °F - 35.6 °F 58% 29.70 in 10.0 mi West 3.5 mph - N/A   Mostly Cloudy
8:55 AM 53.6 °F - 33.8 °F 47% 29.69 in 10.0 mi SSW 16.1 mph 19.6 mph N/A   Scattered Clouds
9:15 AM 53.6 °F - 32.0 °F 44% 29.68 in 10.0 mi SSW 18.4 mph 25.3 mph N/A   Partly Cloudy
9:35 AM 55.4 °F - 28.4 °F 36% 29.67 in 10.0 mi South 15.0 mph 24.2 mph N/A   Scattered Clouds
9:55 AM 55.4 °F - 21.2 °F 26% 29.66 in 10.0 mi SW 11.5 mph 29.9 mph N/A   Partly Cloudy
10:15 AM 57.2 °F - 17.6 °F 21% 29.65 in 10.0 mi West 17.3 mph 27.6 mph N/A   Clear
10:35 AM 57.2 °F - 17.6 °F 21% 29.63 in 10.0 mi SW 24.2 mph 32.2 mph N/A   Partly Cloudy
10:55 AM 57.2 °F - 14.0 °F 18% 29.63 in 10.0 mi WSW 16.1 mph 28.8 mph N/A   Scattered Clouds
11:15 AM 57.2 °F - 15.8 °F 20% 29.64 in 10.0 mi NW 15.0 mph 29.9 mph N/A   Scattered Clouds
11:35 AM 53.6 °F - 26.6 °F 35% 29.64 in 10.0 mi West 11.5 mph 27.6 mph N/A   Mostly Cloudy
11:55 AM 57.2 °F - 24.8 °F 29% 29.64 in 10.0 mi West 18.4 mph 28.8 mph N/A   Mostly Cloudy
12:15 PM 55.4 °F - 12.2 °F 18% 29.66 in 10.0 mi West 23.0 mph 34.5 mph N/A   Scattered Clouds
12:35 PM 55.4 °F - 15.8 °F 21% 29.67 in 10.0 mi WNW 23.0 mph 44.9 mph N/A   Mostly Cloudy
12:55 PM 48.2 °F - 19.4 °F 32% 29.71 in 10.0 mi West 17.3 mph 39.1 mph N/A   Mostly Cloudy
1:15 PM - - - N/A% - 10.0 mi North - - N/A   Mostly Cloudy
1:35 PM - - - N/A% - 10.0 mi North - - N/A   Mostly Cloudy
1:55 PM - - - N/A% - 9.0 mi North - - N/A   Overcast
2:15 PM - - - N/A% - 7.0 mi North - - N/A   Overcast
2:35 PM - - - N/A% - 9.0 mi North - - N/A   Scattered Clouds
2:55 PM - - - N/A% - 5.0 mi North - - N/A   Mostly Cloudy
3:15 PM - - - N/A% - 8.0 mi North - - N/A   Mostly Cloudy
3:35 PM - - - N/A% - 10.0 mi North - - N/A   Overcast
3:55 PM - - - N/A% - 7.0 mi North - - N/A   Mostly Cloudy
4:15 PM 42.8 °F 34.5 °F 26.6 °F 53% 29.85 in 10.0 mi NE 18.4 mph 24.2 mph N/A   Mostly Cloudy
4:35 PM 39.2 °F 31.2 °F 24.8 °F 56% 29.86 in 3.0 mi West 13.8 mph 32.2 mph N/A   Mostly Cloudy
4:55 PM 42.8 °F 38.6 °F 26.6 °F 53% 29.84 in 10.0 mi SW 6.9 mph - N/A   Scattered Clouds
5:15 PM 44.6 °F 36.6 °F 24.8 °F 46% 29.85 in 10.0 mi NNW 19.6 mph 36.8 mph N/A   Scattered Clouds
5:35 PM 41.0 °F 34.3 °F 21.2 °F 45% 29.87 in 10.0 mi North 11.5 mph 24.2 mph N/A   Overcast
5:55 PM 44.6 °F 37.4 °F 24.8 °F 46% 29.86 in 10.0 mi NNE 16.1 mph 24.2 mph N/A   Mostly Cloudy
6:15 PM 44.6 °F 39.7 °F 17.6 °F 34% 29.86 in 10.0 mi North 9.2 mph 26.5 mph N/A   Mostly Cloudy
6:35 PM 42.8 °F 36.2 °F 15.8 °F 34% 29.88 in 10.0 mi West 12.7 mph 18.4 mph N/A   Mostly Cloudy
6:55 PM 42.8 °F 37.5 °F 17.6 °F 36% 29.88 in 10.0 mi West 9.2 mph - N/A   Overcast
7:15 PM 42.8 °F 35.8 °F 17.6 °F 36% 29.89 in 10.0 mi West 13.8 mph 19.6 mph N/A   Scattered Clouds
7:35 PM 41.0 °F 35.8 °F 19.4 °F 42% 29.90 in 10.0 mi West 8.1 mph - N/A   Clear
7:55 PM - - - N/A% - 8.0 mi North - - N/A   Mostly Cloudy
8:15 PM 33.8 °F 25.8 °F 24.8 °F 70% 29.95 in 2.5 mi East 10.4 mph 20.7 mph N/A   Overcast
8:35 PM 35.6 °F 32.8 °F 24.8 °F 65% 29.97 in 10.0 mi NE 3.5 mph - N/A   Overcast
8:55 PM 35.6 °F 29.2 °F 26.6 °F 70% 29.96 in 10.0 mi SSW 8.1 mph - N/A   Overcast
9:15 PM 33.8 °F 29.6 °F 26.6 °F 75% 29.96 in 10.0 mi West 4.6 mph - N/A   Overcast
9:35 PM 33.8 °F 29.6 °F 24.8 °F 70% 29.97 in 10.0 mi SW 4.6 mph - N/A   Overcast
9:55 PM 33.8 °F 30.8 °F 24.8 °F 70% 29.97 in 10.0 mi SSW 3.5 mph - N/A   Overcast
10:15 PM 33.8 °F - 24.8 °F 70% 29.98 in 10.0 mi Calm Calm - N/A   Overcast
10:35 PM 33.8 °F - 26.6 °F 75% 30.00 in 10.0 mi Calm Calm - N/A   Overcast
10:55 PM 33.8 °F 30.8 °F 24.8 °F 70% 30.00 in 10.0 mi SE 3.5 mph - N/A   Overcast
11:15 PM 35.6 °F - 26.6 °F 70% 30.01 in 10.0 mi Calm Calm - N/A   Overcast
11:35 PM 35.6 °F - 24.8 °F 65% 30.03 in 10.0 mi Calm Calm - N/A   Overcast
11:55 PM 33.8 °F 27.7 °F 23.0 °F 65% 30.03 in 10.0 mi SSW 6.9 mph - N/A   Mostly Cloudy